Tracking 25534 objects as of 28-Jan-2022
HD Live streaming from Space Station
objects crossing your sky now

STARLINK-3203

Track STARLINK-3203 now!
10-day predictions
STARLINK-3203 is classified as:


NORAD ID: 49761
Int'l Code: 2021-115AP
Perigee: 449.5 km
Apogee: 454.1 km
Inclination: 53.2 °
Period: 93.5 minutes
Semi major axis: 6822 km
RCS: Unknown
Launch date: December 2, 2021
Source: United States (US)
Launch site: AIR FORCE EASTERN TEST RANGE (AFETR)
aabbcc
Your satellite tracking list
Your tracking list is empty




NASA's NSSDC Master Catalog

Two Line Element Set (TLE):
1 49761U 21115AP  22028.50001157  .00015251  00000-0  37965-3 0  9997
2 49761  53.2181  50.8414 0003346  16.8951 183.8522 15.40480198  3627
Source of the keplerian elements: AFSPC